Time,TemperatureF,DewpointF,PressureIn,WindDirection,WindDirectionDegrees,WindSpeedMPH,WindSpeedGustMPH,Humidity,HourlyPrecipIn,Conditions,Clouds,dailyrainin,SoftwareType,DateUTC
2013-03-16 00:14:00,30.9,30.0,29.91,WSW,243,0.0,2.0,95,0.00,,,0.00,weatherlink.com 1.10,2013-03-16 04:14:00,
2013-03-16 00:29:00,30.7,29.0,29.90,SSW,209,0.0,3.0,94,0.00,,,0.00,weatherlink.com 1.10,2013-03-16 04:29:00,
2013-03-16 00:44:00,30.3,29.0,29.90,ESE,103,0.0,2.0,95,0.00,,,0.00,weatherlink.com 1.10,2013-03-16 04:44:00,
2013-03-16 00:59:00,29.6,28.0,29.90,South,182,2.0,5.0,94,0.00,,,0.00,weatherlink.com 1.10,2013-03-16 04:59:00,
2013-03-16 01:15:00,29.3,28.0,29.89,SE,134,0.0,2.0,94,0.00,,,0.00,weatherlink.com 1.10,2013-03-16 05:15:00,
2013-03-16 01:30:00,29.4,28.0,29.89,SE,138,0.0,2.0,94,0.00,,,0.00,weatherlink.com 1.10,2013-03-16 05:30:00,
2013-03-16 01:45:00,29.1,28.0,29.87,SSE,155,0.0,2.0,94,0.00,,,0.00,weatherlink.com 1.10,2013-03-16 05:45:00,
2013-03-16 02:00:00,28.9,27.0,29.88,ESE,119,0.0,3.0,94,0.00,,,0.00,weatherlink.com 1.10,2013-03-16 06:00:00,
2013-03-16 02:15:00,28.8,27.0,29.87,ESE,117,0.0,4.0,94,0.00,,,0.00,weatherlink.com 1.10,2013-03-16 06:15:00,
2013-03-16 02:30:00,28.7,28.0,29.86,East,82,1.0,2.0,95,0.00,,,0.00,weatherlink.com 1.10,2013-03-16 06:30:00,
2013-03-16 02:44:00,28.6,27.0,29.86,SE,133,0.0,3.0,95,0.00,,,0.00,weatherlink.com 1.10,2013-03-16 06:44:00,
2013-03-16 03:00:00,28.6,27.0,29.86,SSE,161,0.0,1.0,95,0.00,,,0.00,weatherlink.com 1.10,2013-03-16 07:00:00,
2013-03-16 03:15:00,28.6,27.0,29.86,ESE,111,0.0,3.0,95,0.00,,,0.00,weatherlink.com 1.10,2013-03-16 07:15:00,
2013-03-16 03:30:00,28.8,28.0,29.86,SW,232,1.0,4.0,95,0.00,,,0.00,weatherlink.com 1.10,2013-03-16 07:30:00,
2013-03-16 03:45:00,28.9,27.0,29.85,ESE,113,1.0,2.0,94,0.00,,,0.00,weatherlink.com 1.10,2013-03-16 07:45:00,
2013-03-16 04:00:00,29.1,28.0,29.85,SSE,154,0.0,3.0,94,0.00,,,0.00,weatherlink.com 1.10,2013-03-16 08:00:00,
2013-03-16 04:15:00,29.3,28.0,29.84,South,184,0.0,3.0,94,0.00,,,0.00,weatherlink.com 1.10,2013-03-16 08:15:00,
2013-03-16 04:30:00,29.3,28.0,29.83,ENE,61,1.0,5.0,94,0.00,,,0.00,weatherlink.com 1.10,2013-03-16 08:30:00,
2013-03-16 04:45:00,29.3,28.0,29.83,ESE,107,2.0,4.0,93,0.00,,,0.00,weatherlink.com 1.10,2013-03-16 08:45:00,
2013-03-16 05:00:00,29.2,28.0,29.83,NE,44,1.0,2.0,93,0.00,,,0.00,weatherlink.com 1.10,2013-03-16 09:00:00,
2013-03-16 05:15:00,29.0,28.0,29.83,ESE,117,1.0,3.0,94,0.00,,,0.00,weatherlink.com 1.10,2013-03-16 09:15:00,
2013-03-16 05:30:00,28.9,27.0,29.84,North,11,0.0,3.0,94,0.00,,,0.00,weatherlink.com 1.10,2013-03-16 09:30:00,
2013-03-16 05:45:00,28.8,27.0,29.82,ESE,117,1.0,2.0,94,0.00,,,0.00,weatherlink.com 1.10,2013-03-16 09:45:00,
2013-03-16 06:00:00,28.6,27.0,29.82,ESE,122,2.0,3.0,93,0.00,,,0.00,weatherlink.com 1.10,2013-03-16 10:00:00,
2013-03-16 06:15:00,28.2,27.0,29.82,South,190,0.0,3.0,93,0.00,,,0.00,weatherlink.com 1.10,2013-03-16 10:15:00,
2013-03-16 06:30:00,27.8,26.0,29.83,East,82,1.0,3.0,92,0.00,,,0.00,weatherlink.com 1.10,2013-03-16 10:30:00,
2013-03-16 06:45:00,27.3,25.0,29.83,SSE,168,0.0,2.0,92,0.00,,,0.00,weatherlink.com 1.10,2013-03-16 10:45:00,
2013-03-16 07:00:00,27.0,25.0,29.83,SE,133,0.0,4.0,91,0.00,,,0.00,weatherlink.com 1.10,2013-03-16 11:00:00,
2013-03-16 07:15:00,26.9,25.0,29.83,East,80,0.0,4.0,91,0.00,,,0.00,weatherlink.com 1.10,2013-03-16 11:15:00,
2013-03-16 07:30:00,26.6,24.0,29.85,ESE,121,0.0,4.0,90,0.00,,,0.00,weatherlink.com 1.10,2013-03-16 11:30:00,
2013-03-16 07:45:00,26.0,24.0,29.86,ESE,123,0.0,3.0,90,0.00,,,0.00,weatherlink.com 1.10,2013-03-16 11:45:00,
2013-03-16 08:00:00,25.7,23.0,29.86,NE,40,3.0,6.0,89,0.00,,,0.00,weatherlink.com 1.10,2013-03-16 12:00:00,
2013-03-16 08:15:00,25.6,23.0,29.88,WNW,298,0.0,4.0,89,0.00,,,0.00,weatherlink.com 1.10,2013-03-16 12:15:00,
2013-03-16 08:30:00,25.4,22.0,29.88,East,92,1.0,5.0,88,0.00,,,0.00,weatherlink.com 1.10,2013-03-16 12:30:00,
2013-03-16 08:45:00,25.3,23.0,29.89,SE,133,0.0,3.0,89,0.00,,,0.00,weatherlink.com 1.10,2013-03-16 12:45:00,
2013-03-16 09:00:00,25.2,22.0,29.89,ESE,109,1.0,3.0,88,0.00,,,0.00,weatherlink.com 1.10,2013-03-16 13:00:00,
2013-03-16 09:15:00,25.1,22.0,29.89,NW,317,1.0,4.0,88,0.00,,,0.00,weatherlink.com 1.10,2013-03-16 13:15:00,
2013-03-16 09:30:00,25.2,23.0,29.90,SE,142,0.0,2.0,90,0.00,,,0.00,weatherlink.com 1.10,2013-03-16 13:30:00,
2013-03-16 09:45:00,25.2,23.0,29.91,NNW,335,0.0,4.0,90,0.00,,,0.00,weatherlink.com 1.10,2013-03-16 13:45:00,
2013-03-16 10:00:00,25.5,23.0,29.90,SE,132,0.0,2.0,91,0.00,,,0.00,weatherlink.com 1.10,2013-03-16 14:00:00,
2013-03-16 10:15:00,25.5,23.0,29.91,NNE,15,0.0,4.0,90,0.00,,,0.00,weatherlink.com 1.10,2013-03-16 14:15:00,
2013-03-16 10:30:00,25.3,23.0,29.91,East,99,0.0,3.0,90,0.00,,,0.00,weatherlink.com 1.10,2013-03-16 14:30:00,
2013-03-16 10:45:00,25.7,24.0,29.92,East,88,1.0,3.0,91,0.00,,,0.00,weatherlink.com 1.10,2013-03-16 14:45:00,
2013-03-16 11:00:00,25.8,24.0,29.92,East,88,1.0,3.0,91,0.00,,,0.00,weatherlink.com 1.10,2013-03-16 15:00:00,
2013-03-16 11:16:00,26.0,24.0,29.92,South,178,0.0,2.0,90,0.00,,,0.00,weatherlink.com 1.10,2013-03-16 15:16:00,
2013-03-16 11:31:00,26.5,24.0,29.93,ESE,115,3.0,3.0,90,0.00,,,0.00,weatherlink.com 1.10,2013-03-16 15:31:00,
2013-03-16 11:46:00,27.0,24.0,29.93,NE,40,0.0,2.0,88,0.00,,,0.00,weatherlink.com 1.10,2013-03-16 15:46:00,
2013-03-16 12:01:00,27.4,24.0,29.94,SE,136,0.0,2.0,88,0.00,,,0.00,weatherlink.com 1.10,2013-03-16 16:01:00,
2013-03-16 12:16:00,27.7,24.0,29.94,SW,229,1.0,2.0,86,0.00,,,0.00,weatherlink.com 1.10,2013-03-16 16:16:00,
2013-03-16 12:31:00,27.8,24.0,29.96,SSE,155,0.0,3.0,85,0.00,,,0.00,weatherlink.com 1.10,2013-03-16 16:31:00,
2013-03-16 13:16:00,29.2,25.0,29.99,West,276,0.0,1.0,83,0.00,,,0.00,weatherlink.com 1.10,2013-03-16 17:16:00,
2013-03-16 13:31:00,29.2,24.0,29.99,WSW,237,1.0,2.0,81,0.00,,,0.00,weatherlink.com 1.10,2013-03-16 17:31:00,
2013-03-16 13:46:00,29.9,24.0,30.00,SW,225,1.0,2.0,80,0.00,,,0.00,weatherlink.com 1.10,2013-03-16 17:46:00,
2013-03-16 14:01:00,30.6,25.0,30.00,SSW,194,0.0,3.0,79,0.00,,,0.00,weatherlink.com 1.10,2013-03-16 18:01:00,
2013-03-16 14:16:00,31.8,26.0,30.00,SW,223,3.0,6.0,78,0.00,,,0.00,weatherlink.com 1.10,2013-03-16 18:16:00,
2013-03-16 14:31:00,31.9,25.0,30.00,SSW,200,1.0,5.0,76,0.00,,,0.00,weatherlink.com 1.10,2013-03-16 18:31:00,
2013-03-16 14:46:00,32.9,26.0,30.00,ENE,72,1.0,3.0,75,0.01,,,0.01,weatherlink.com 1.10,2013-03-16 18:46:00,
2013-03-16 15:01:00,33.0,26.0,30.00,NNE,22,1.0,3.0,76,0.02,,,0.02,weatherlink.com 1.10,2013-03-16 19:01:00,
2013-03-16 15:16:00,32.6,25.0,29.99,WSW,250,2.0,5.0,74,0.03,,,0.03,weatherlink.com 1.10,2013-03-16 19:16:00,
2013-03-16 15:31:00,33.1,25.0,29.99,NW,313,2.0,3.0,73,0.04,,,0.04,weatherlink.com 1.10,2013-03-16 19:31:00,
2013-03-16 15:46:00,33.0,25.0,29.99,SSW,200,0.0,4.0,72,0.04,,,0.05,weatherlink.com 1.10,2013-03-16 19:46:00,
2013-03-16 16:01:00,33.3,24.0,29.99,SW,221,0.0,2.0,70,0.04,,,0.06,weatherlink.com 1.10,2013-03-16 20:01:00,
2013-03-16 16:16:00,33.4,25.0,29.99,WSW,244,1.0,5.0,70,0.04,,,0.07,weatherlink.com 1.10,2013-03-16 20:16:00,
2013-03-16 16:31:00,33.3,25.0,29.99,SE,145,0.0,3.0,71,0.03,,,0.07,weatherlink.com 1.10,2013-03-16 20:31:00,
2013-03-16 16:46:00,33.6,25.0,29.99,SSW,211,1.0,3.0,71,0.03,,,0.08,weatherlink.com 1.10,2013-03-16 20:46:00,
2013-03-16 17:01:00,34.2,26.0,29.99,SW,232,0.0,2.0,71,0.02,,,0.08,weatherlink.com 1.10,2013-03-16 21:01:00,
2013-03-16 17:16:00,34.3,25.0,30.00,SW,228,2.0,3.0,70,0.02,,,0.09,weatherlink.com 1.10,2013-03-16 21:16:00,
2013-03-16 17:31:00,34.1,25.0,30.00,West,266,0.0,3.0,68,0.02,,,0.09,weatherlink.com 1.10,2013-03-16 21:31:00,
2013-03-16 17:46:00,34.0,26.0,30.01,SW,222,1.0,3.0,71,0.02,,,0.10,weatherlink.com 1.10,2013-03-16 21:46:00,
2013-03-16 18:01:00,34.2,24.0,30.01,SW,223,0.0,2.0,67,0.02,,,0.10,weatherlink.com 1.10,2013-03-16 22:01:00,
2013-03-16 18:16:00,35.9,25.0,30.01,SE,133,0.0,3.0,64,0.01,,,0.10,weatherlink.com 1.10,2013-03-16 22:16:00,
2013-03-16 18:31:00,35.3,24.0,30.01,West,261,1.0,4.0,64,0.02,,,0.11,weatherlink.com 1.10,2013-03-16 22:31:00,
2013-03-16 18:46:00,34.4,23.0,30.02,WSW,245,0.0,6.0,64,0.01,,,0.11,weatherlink.com 1.10,2013-03-16 22:46:00,
2013-03-16 19:01:00,33.8,22.0,30.02,West,276,1.0,5.0,63,0.02,,,0.12,weatherlink.com 1.10,2013-03-16 23:01:00,
2013-03-16 19:16:00,32.5,24.0,30.02,SW,235,1.0,5.0,71,0.02,,,0.12,weatherlink.com 1.10,2013-03-16 23:16:00,
2013-03-16 19:31:00,30.6,25.0,30.02,West,271,0.0,2.0,78,0.01,,,0.12,weatherlink.com 1.10,2013-03-16 23:31:00,
2013-03-16 19:46:00,29.0,24.0,30.02,West,271,0.0,0.0,81,0.01,,,0.12,weatherlink.com 1.10,2013-03-16 23:46:00,
2013-03-16 20:01:00,28.2,24.0,30.03,SSE,168,0.0,1.0,83,0.00,,,0.12,weatherlink.com 1.10,2013-03-17 00:01:00,
2013-03-16 20:16:00,27.6,23.0,30.04,SSE,168,0.0,0.0,84,0.00,,,0.12,weatherlink.com 1.10,2013-03-17 00:16:00,
2013-03-16 20:31:00,27.3,23.0,30.05,SSE,168,0.0,0.0,82,0.00,,,0.12,weatherlink.com 1.10,2013-03-17 00:31:00,
2013-03-16 20:46:00,26.7,22.0,30.05,SSE,168,0.0,0.0,83,0.00,,,0.12,weatherlink.com 1.10,2013-03-17 00:46:00,
2013-03-16 21:02:00,26.4,22.0,30.06,WNW,295,0.0,2.0,83,0.00,,,0.12,weatherlink.com 1.10,2013-03-17 01:02:00,
2013-03-16 21:17:00,26.6,21.0,30.07,NW,321,0.0,5.0,80,0.00,,,0.12,weatherlink.com 1.10,2013-03-17 01:17:00,
2013-03-16 21:32:00,26.8,21.0,30.07,West,281,3.0,4.0,80,0.00,,,0.12,weatherlink.com 1.10,2013-03-17 01:32:00,
2013-03-16 21:47:00,26.2,21.0,30.07,West,269,0.0,2.0,79,0.00,,,0.12,weatherlink.com 1.10,2013-03-17 01:47:00,
2013-03-16 22:02:00,25.4,21.0,30.08,South,188,1.0,2.0,82,0.00,,,0.12,weatherlink.com 1.10,2013-03-17 02:02:00,
2013-03-16 22:17:00,25.1,20.0,30.10,West,267,0.0,4.0,82,0.00,,,0.12,weatherlink.com 1.10,2013-03-17 02:17:00,
2013-03-16 22:32:00,24.9,20.0,30.11,WSW,249,0.0,4.0,81,0.00,,,0.12,weatherlink.com 1.10,2013-03-17 02:32:00,
2013-03-16 22:47:00,24.1,20.0,30.12,SW,228,0.0,1.0,84,0.00,,,0.12,weatherlink.com 1.10,2013-03-17 02:47:00,
2013-03-16 23:02:00,23.7,20.0,30.12,SSE,150,0.0,1.0,84,0.00,,,0.12,weatherlink.com 1.10,2013-03-17 03:02:00,
2013-03-16 23:17:00,23.2,20.0,30.13,SSE,150,0.0,0.0,86,0.00,,,0.12,weatherlink.com 1.10,2013-03-17 03:17:00,
2013-03-16 23:32:00,22.9,19.0,30.13,SSE,150,0.0,0.0,86,0.00,,,0.12,weatherlink.com 1.10,2013-03-17 03:32:00,
2013-03-16 23:47:00,22.6,19.0,30.13,SSE,150,0.0,0.0,87,0.00,,,0.12,weatherlink.com 1.10,2013-03-17 03:47:00,